Weather History for KMCI - December, 2011

Change the Weather History Date:

Tuesday, December 13, 2011

  Actual Average Record
Temperature  
Mean Temperature 43 °F 32 °F  
Max Temperature 46 °F 40 °F 73 °F (1948)
Min Temperature 39 °F 23 °F -6 °F (1917)
Degree Days  
Heating Degree Days 22 33  
Month to date heating degree days 414 407  
Since 1 July heating degree days 1338 1409  
Cooling Degree Days 0 0  
Month to date cooling degree days 0 0  
Year to date cooling degree days 1598 1360  
Moisture  
Dew Point 41 °F    
Average Humidity 90    
Maximum Humidity 100    
Minimum Humidity 79    
Precipitation  
Precipitation 0.25 in 0.06 in 2.59 in (1992)
Month to date precipitation 1.37 0.75  
Year to date precipitation 35.26 38.08  
Snow  
Snow 0.00 in 0.10 in 7.00 in (2000)
Month to date snowfall T 1.8  
Since 1 July snowfall T 3.2  
Snow Depth 0.00 in    
Sea Level Pressure  
Sea Level Pressure 30.23 in    
Wind  
Wind Speed 7 mph (SSE)    
Max Wind Speed 14 mph    
Max Gust Speed 17 mph    
Visibility 5 miles    
Events Rain    
T = Trace of Precipitation, MM = Missing Value Source: NWS Daily Summary

Daily Weather History Graph

Daily Weather History Graph

Search for Another Location

Airport or City:

Trip Planner

Search our weather history database for the weather conditions in past years. The results will help you decide how hot, cold, wet, or windy it might be!

Date:

Astronomy

Dec. 13, 2011 Rise Set
Actual Time 7:29 AM CST 4:56 PM CST
Civil Twilight 6:59 AM CST 5:26 PM CST
Nautical Twilight 6:26 AM CST 5:59 PM CST
Astronomical Twilight 5:53 AM CST 6:32 PM CST
Moon 8:11 PM CST (12/13) 9:41 AM CST (12/13)
Length of Visible Light 10h 26m
Length of Day
9h 26m
Waning Gibbous, 90% of the Moon is Illuminated
Dec 13
Waning Gibbous
Dec 17
Last Quarter
Dec 24
New
Jan 1
First Quarter
Jan 9
Full

Hourly Weather History & Observations

Time (CST) Temp. Windchill Dew Point Humidity Pressure Visibility Wind Dir Wind Speed Gust Speed Precip Events Conditions
12:53 AM 41.0 °F 35.8 °F 37.0 °F 86% 30.31 in 10.0 mi South 8.1 mph - N/A   Overcast
1:53 AM 39.9 °F 35.8 °F 37.0 °F 89% 30.27 in 9.0 mi SSE 5.8 mph - N/A   Overcast
2:35 AM 39.2 °F 33.0 °F 37.4 °F 93% 30.31 in 9.0 mi SSW 9.2 mph - N/A   Overcast
2:53 AM 39.9 °F 35.8 °F 37.0 °F 89% 30.31 in 9.0 mi SSW 5.8 mph - N/A   Overcast
3:53 AM 39.9 °F 35.1 °F 37.0 °F 89% 30.32 in 10.0 mi SSW 6.9 mph - N/A   Overcast
4:00 AM 39.2 °F 35.0 °F 37.4 °F 93% 30.31 in 10.0 mi SSW 5.8 mph - N/A   Overcast
4:53 AM 39.2 °F 35.9 °F 35.6 °F 87% 30.31 in 9.0 mi SSW 4.6 mph - N/A Rain Light Rain
5:07 AM 39.2 °F 35.0 °F 37.4 °F 93% 30.31 in 6.0 mi SSW 5.8 mph - 0.00 in Rain Light Rain
5:53 AM 39.0 °F 34.0 °F 37.9 °F 96% 30.32 in 4.0 mi South 6.9 mph - 0.00 in Rain Light Rain
6:53 AM 39.0 °F 35.7 °F 37.9 °F 96% 30.32 in 5.0 mi South 4.6 mph - 0.00 in Rain Light Rain
7:22 AM 39.2 °F 35.9 °F 37.4 °F 93% 30.31 in 5.0 mi South 4.6 mph - 0.00 in Rain Light Rain
7:53 AM 39.0 °F 34.8 °F 37.9 °F 96% 30.33 in 6.0 mi South 5.8 mph - 0.00 in   Light Drizzle
8:49 AM 39.2 °F 33.6 °F 39.2 °F 100% 30.31 in 2.5 mi South 8.1 mph - 0.00 in   Overcast
8:53 AM 39.0 °F 34.0 °F 39.0 °F 100% 30.32 in 2.5 mi South 6.9 mph - 0.00 in   Light Drizzle
9:09 AM 39.2 °F 33.6 °F 39.2 °F 100% 30.27 in 3.0 mi SE 8.1 mph - 0.00 in Rain Light Rain
9:53 AM 39.9 °F 34.5 °F 39.0 °F 97% 30.33 in 7.0 mi SSW 8.1 mph - 0.00 in   Overcast
10:53 AM 41.0 °F 35.8 °F 39.9 °F 96% 30.31 in 9.0 mi South 8.1 mph - N/A   Overcast
11:53 AM 42.1 °F 36.6 °F 39.9 °F 92% 30.29 in 8.0 mi South 9.2 mph - 0.02 in Rain Light Rain
12:53 PM 42.1 °F 37.7 °F 41.0 °F 96% 30.25 in 7.0 mi SSE 6.9 mph - 0.00 in   Overcast
1:53 PM 42.1 °F 37.7 °F 41.0 °F 96% 30.23 in 5.0 mi SSE 6.9 mph - 0.00 in Rain Light Rain
2:38 PM 42.8 °F 37.0 °F 41.0 °F 93% 30.20 in 1.5 mi SSE 10.4 mph - 0.02 in Rain Light Rain
2:53 PM 42.1 °F 36.6 °F 41.0 °F 96% 30.21 in 1.5 mi SSE 9.2 mph - 0.03 in Rain Light Rain
3:03 PM 42.8 °F 36.6 °F 41.0 °F 93% 30.19 in 3.0 mi SSE 11.5 mph - 0.00 in Rain Light Rain
3:16 PM 42.8 °F 36.6 °F 41.0 °F 93% 30.18 in 2.0 mi SSE 11.5 mph - 0.01 in Rain Light Rain
3:53 PM 42.1 °F 35.2 °F 42.1 °F 100% 30.19 in 2.0 mi SSE 12.7 mph - 0.02 in Rain Light Rain
4:31 PM 42.8 °F 38.0 °F 42.8 °F 100% 30.18 in 2.0 mi South 8.1 mph - 0.02 in Rain Light Rain
4:47 PM 42.8 °F 38.0 °F 42.8 °F 100% 30.18 in 5.0 mi South 8.1 mph - 0.02 in Rain Light Rain
4:53 PM 43.0 °F 38.8 °F 42.1 °F 97% 30.19 in 1.5 mi South 6.9 mph - 0.03 in Rain Light Rain
5:03 PM 42.8 °F 38.6 °F 42.8 °F 100% 30.17 in 1.5 mi SSE 6.9 mph - 0.01 in Rain Light Rain
5:24 PM 42.8 °F 39.3 °F 42.8 °F 100% 30.16 in 3.0 mi SSE 5.8 mph - 0.02 in Rain Light Rain
5:53 PM 43.0 °F 40.3 °F 43.0 °F 100% 30.18 in 3.0 mi SSE 4.6 mph - 0.04 in Rain Light Rain
6:47 PM 44.6 °F 39.7 °F 42.8 °F 93% 30.14 in 3.0 mi SE 9.2 mph - 0.05 in Rain Rain
6:53 PM 44.1 °F 39.0 °F 43.0 °F 96% 30.15 in 3.0 mi SE 9.2 mph - 0.06 in Rain Light Rain
7:53 PM 44.1 °F 37.7 °F 44.1 °F 100% 30.14 in 8.0 mi SSE 12.7 mph - 0.01 in   Overcast
8:53 PM 45.0 °F 41.8 °F 43.0 °F 93% 30.13 in 8.0 mi South 5.8 mph - 0.00 in   Overcast
9:53 PM 44.1 °F 40.1 °F 43.0 °F 96% 30.10 in 4.0 mi SE 6.9 mph - 0.01 in Rain Light Rain
10:12 PM 44.6 °F 41.4 °F 44.6 °F 100% 30.08 in 2.5 mi SE 5.8 mph - 0.01 in Rain Light Rain
10:30 PM 44.6 °F 40.7 °F 44.6 °F 100% 30.08 in 4.0 mi SSE 6.9 mph - 0.01 in   Overcast
10:53 PM 45.0 °F 39.7 °F 44.1 °F 97% 30.07 in 3.0 mi SSE 10.4 mph - 0.01 in   Light Drizzle
11:53 PM 46.0 °F 41.9 °F 45.0 °F 96% 30.05 in 4.0 mi SSE 8.1 mph - 0.01 in   Light Drizzle